Change the Weather History Date:

Saturday, February 16, 2013

  Actual Average Record
Temperature  
Mean Temperature 31 °F 29 °F  
Max Temperature 50 °F 40 °F 73 °F (1921)
Min Temperature 12 °F 19 °F -17 °F (1900)
Degree Days  
Heating Degree Days 34 36  
Month to date heating degree days 478 602  
Since 1 July heating degree days 3993 4358  
Cooling Degree Days 0 0  
Month to date cooling degree days 0 0  
Year to date cooling degree days 0 0  
Moisture  
Dew Point 21 °F    
Average Humidity 67    
Maximum Humidity 92    
Minimum Humidity 42    
Precipitation  
Precipitation 0.02 in 0.02 in 0.70 in (1932)
Month to date precipitation 0.09 0.34  
Year to date precipitation 0.25 0.87  
Snow  
Snow T in 0.30 in 4.00 in (1918)
Month to date snowfall T 3.9  
Since 1 July snowfall 10.4 19.7  
Snow Depth T in    
Sea Level Pressure  
Sea Level Pressure 30.13 in    
Wind  
Wind Speed 9 mph (SSW)    
Max Wind Speed 20 mph    
Max Gust Speed 24 mph    
Visibility 9 miles    
Events Snow    
T = Trace of Precipitation, MM = Missing Value Source: NWS Daily Summary

Daily Weather History Graph

Daily Weather History Graph

Search for Another Location

Airport or City:

Trip Planner

Search our weather history database for the weather conditions in past years. The results will help you decide how hot, cold, wet, or windy it might be!

Date:

Astronomy

Feb. 16, 2013 Rise Set
Actual Time 7:25 AM CST 6:09 PM CST
Civil Twilight 6:57 AM CST 6:37 PM CST
Nautical Twilight 6:25 AM CST 7:09 PM CST
Astronomical Twilight 5:53 AM CST 7:41 PM CST
Moon 10:36 AM CST (2/16) 12:13 AM CST (2/16)
Length of Visible Light 11h 39m
Length of Day
10h 43m
Waxing Crescent, 39% of the Moon is Illuminated
Feb 16
Waxing Crescent
Feb 17
First Quarter
Feb 25
Full
Mar 4
Last Quarter
Mar 11
New

Hourly Weather History & Observations

Time (CST) Temp. Windchill Dew Point Humidity Pressure Visibility Wind Dir Wind Speed Gust Speed Precip Events Conditions
12:53 AM 14.0 °F 6.5 °F 10.9 °F 88% 30.40 in 10.0 mi West 4.6 mph - N/A   Clear
1:53 AM 12.9 °F 3.8 °F 10.0 °F 88% 30.38 in 10.0 mi SW 5.8 mph - N/A   Clear
2:53 AM 15.1 °F 6.4 °F 10.9 °F 84% 30.35 in 10.0 mi SW 5.8 mph - N/A   Clear
3:53 AM 18.0 °F 6.9 °F 14.0 °F 84% 30.33 in 10.0 mi WSW 9.2 mph - N/A   Partly Cloudy
4:53 AM 19.9 °F 8.6 °F 15.1 °F 81% 30.28 in 10.0 mi SW 10.4 mph - N/A   Mostly Cloudy
5:53 AM 21.0 °F 9.3 °F 15.1 °F 78% 30.26 in 10.0 mi SSW 11.5 mph - N/A   Overcast
6:53 AM 23.0 °F 11.1 °F 15.1 °F 72% 30.23 in 10.0 mi SSW 12.7 mph - N/A   Overcast
7:29 AM 23.0 °F 11.7 °F 15.8 °F 74% 30.14 in 4.0 mi SSW 11.5 mph - 0.00 in Snow Light Snow
7:41 AM 23.0 °F 11.7 °F 17.6 °F 80% 30.14 in 2.5 mi SSW 11.5 mph - 0.00 in Snow Light Snow
7:53 AM 23.0 °F 10.6 °F 17.1 °F 78% 30.21 in 2.5 mi South 13.8 mph - 0.00 in Snow Light Snow
7:58 AM 23.0 °F 10.6 °F 17.6 °F 80% 30.13 in 4.0 mi South 13.8 mph - 0.00 in Snow Light Snow
8:53 AM 24.1 °F 13.1 °F 19.0 °F 81% 30.19 in 4.0 mi South 11.5 mph - 0.01 in Snow Light Snow
9:53 AM 25.0 °F 13.1 °F 21.0 °F 85% 30.17 in 4.0 mi South 13.8 mph - 0.01 in Snow Light Snow
10:13 AM 26.6 °F 15.2 °F 21.2 °F 80% 30.08 in 10.0 mi South 13.8 mph - 0.00 in   Overcast
10:53 AM 28.9 °F 17.3 °F 21.0 °F 72% 30.13 in 10.0 mi SSW 16.1 mph - 0.00 in   Overcast
11:53 AM 33.1 °F 23.0 °F 23.0 °F 66% 30.11 in 10.0 mi South 15.0 mph - N/A   Overcast
12:53 PM 41.0 °F 35.2 °F 24.1 °F 51% 30.07 in 10.0 mi WSW 9.2 mph 17.3 mph N/A   Overcast
1:53 PM 45.0 °F 40.1 °F 25.0 °F 46% 30.05 in 10.0 mi West 9.2 mph - N/A   Partly Cloudy
2:53 PM 48.0 °F - 27.0 °F 44% 30.02 in 10.0 mi NW 11.5 mph - N/A   Scattered Clouds
3:53 PM 50.0 °F - 28.0 °F 43% 30.00 in 10.0 mi NNW 9.2 mph - N/A   Partly Cloudy
4:53 PM 48.9 °F - 28.0 °F 44% 30.00 in 10.0 mi NE 4.6 mph - N/A   Clear
5:53 PM 41.0 °F 38.0 °F 28.0 °F 60% 30.01 in 10.0 mi SE 4.6 mph - N/A   Clear
6:53 PM 41.0 °F 38.0 °F 27.0 °F 57% 30.02 in 10.0 mi Variable 4.6 mph - N/A   Scattered Clouds
7:53 PM 34.0 °F 26.0 °F 26.1 °F 73% 30.02 in 10.0 mi ESE 10.4 mph - N/A   Clear
8:53 PM 33.1 °F 26.9 °F 26.1 °F 75% 30.01 in 10.0 mi SE 6.9 mph - N/A   Clear
9:53 PM 30.9 °F 25.2 °F 25.0 °F 79% 30.02 in 10.0 mi SSE 5.8 mph - N/A   Clear
10:53 PM 28.9 °F - 23.0 °F 78% 30.01 in 10.0 mi Calm Calm - N/A   Clear
11:53 PM 28.0 °F 24.2 °F 23.0 °F 81% 29.99 in 10.0 mi SSE 3.5 mph - N/A   Clear